sat.trackr.live / text

‹ back to catalog

STARLINK-33621

NORAD 63375 · 2025-063N

PAYLOAD ACTIVE UNKNOWN

§ Identity

Operator
Country
US
Launch date
2025-03-26
Launch site
AFWTR
Launch vehicle
Mass (kg)
RCS (m²)

Purposes: comms

External: N2YO · Heavens-Above · Gunter

§ Orbital elements

Epoch: 2026-09-20T10:42:39.306528Z

Period
93.85 min
Inclination
53.1561°
Eccentricity
0.0001266
Mean motion
15.34409037 rev/d
Perigee alt
461.8 km
Apogee alt
463.5 km
Semi-major
6,840.8 km
B*
4.9215e-4
RAAN
221.7311°
Arg perigee
94.0377°
Mean anomaly
266.0771°
Rev number
8,461

§ Raw data

STARLINK-336211 63375U 25063N   26263.44628827  .00016293  00000+0  49215-3 0  99942 63375  53.1561 221.7311 0001266  94.0377 266.0771 15.34409037 84613

JSON: /api/v1/satellites/63375 · /tle

For live sub-satellite position, see the globe view (requires WebGL).

§ Visibility from observer

Set your observer location to see the next 7 days of passes ≥ 10°. The values pass through the URL so the page stays shareable.

No JS? Fill the form by hand. The geolocation button needs JavaScript.